Flag for Colombia Weather past 2 weeks in Medellin, Colombia

Now
57 °F

Fog.


Feels Like: 57 °F
Forecast: 64 / 76 °F
Wind: No wind

Location: Rionegro / J. M. Cordova


UV Index: 3 (Moderate)

Visibility: 2 mi


Pressure: 30.25 "Hg

Humidity: 94%

Dew point: 55 °F

Location of MedellinLocation

Historic Weather in Medellin

°F

Medellin temperature yesterday

Maximum temperature yesterday: 70 °F (at 12:00 PM)
Minimum temperature yesterday: 57 °F (at 6:00 AM)
Average temperature yesterday: 62 °F

Past Weeks' High & Low Weather Summary

 TemperatureHumidityPressure
High75 °F (Apr 7, 2:00 PM)100% (Apr 1, 4:00 AM)30.37 "Hg (Apr 1, 4:00 AM)
Low52 °F (Apr 1, 5:00 AM)38% (Apr 1, 1:00 PM)30.14 "Hg (Apr 14, 4:00 PM)
Average64 °F79%30.27 "Hg
* Reported Apr 1 4:00 AM — Apr 16 4:00 AM, Medellin, Weather by CustomWeather, © 2014

Note: Actual official high and low records may vary slightly from our data, if they occured in-between our weather recording intervals... More about our weather records

Advertising

Historic Weather Conditions — Data for Previous 24 hours

 ConditionsComfort  
Time TempWeatherWind HumidityBarometerVisibility
4:00 AM
Apr 16
57 °FPartly cloudy.No wind94%30.25 "Hg5 mi
3:00 AM57 °FPartly cloudy.No wind94%30.26 "HgN/A
2:00 AM57 °FPartly cloudy.2 mph94%30.28 "HgN/A
1:00 AM57 °FPassing clouds.No wind100%30.29 "HgN/A
12:00 AM59 °FDrizzle. Mostly cloudy.No wind94%30.30 "Hg6 mi
11:00 PM
Apr 15
59 °FDrizzle. Mostly cloudy.No wind94%30.31 "Hg5 mi
10:00 PM59 °FDrizzle. Mostly cloudy.No wind94%30.32 "Hg5 mi
9:00 PM61 °FDrizzle. Mostly cloudy.No wind94%30.29 "Hg5 mi
8:00 PM61 °FDrizzle. Overcast.No wind94%30.25 "Hg6 mi
6:00 PM61 °FDrizzle. Overcast.No wind94%30.20 "HgN/A
5:00 PM61 °FDrizzle. More clouds than sun.5 mph88%30.20 "Hg6 mi
4:00 PM63 °FMore clouds than sun.10 mph83%30.20 "HgN/A
3:00 PM64 °FThunderstorms. Broken clouds.6 mph83%30.21 "HgN/A
2:00 PM68 °FScattered showers. Broken clouds.5 mph64%30.21 "HgN/A
1:00 PM68 °FScattered showers. Broken clouds.8 mph64%30.23 "HgN/A
12:00 PM70 °FMostly cloudy.8 mph64%30.25 "HgN/A
11:00 AM68 °FPartly sunny.8 mph69%30.27 "HgN/A
10:00 AM64 °FPartly sunny.5 mph73%30.28 "Hg5 mi
9:00 AM63 °FOvercast.No wind77%30.28 "Hg4 mi
8:00 AM61 °FOvercast.No wind88%30.26 "Hg3 mi
7:00 AM59 °FBroken clouds.No wind94%30.24 "Hg3 mi
6:00 AM57 °FSnow. Fog.No wind94%30.23 "HgN/A
5:00 AM59 °FPassing clouds.No wind94%30.23 "Hg5 mi
Weather by CustomWeather, © 2014

See weather overview